カタログに戻る

STARLINK-3868

運用中通信VLEO
NORAD 52649·PAYLOAD·🇺🇸 United States

打ち上げ May 14, 2022 から Cape Canaveral Space Force Station

Loading…

次のパス (今後24時間)

TLE

最新Source: CelesTrak SupGP

元期: Sep 15, 2026, 02:06 UTC

1 52649C 22052BD  26258.08798611  .00043545  00000+0  14005-2 0  2580
2 52649  53.1577 116.0097 0001328  82.2203  82.3863 15.31675442    10

AllMySatでSTARLINK-3868をリアルタイム追跡

Download on the App Store